LNO YSSY-YSHL

Flight info

Callsign LNO
Flight time 0h 31m
Altitude 6000
Route NASHO DCT WOL
Aircraft C208/L-SDFGR/C

Departure

Time 2026-05-04 06:21
Airport Sydney Kingsford Smith International Airport (YSSY)

Arrival

Time 2026-05-04 06:53
Airport Shellharbour Airport (YSHL)
Time Latitude Longitude Altitude Speed Heading
2026-05-04 05:49 -33.93663 151.18126 29 ft 0 kts 50°
2026-05-04 05:52 -33.93663 151.18125 29 ft 0 kts 50°
2026-05-04 05:57 -33.93664 151.18125 29 ft 0 kts 50°
2026-05-04 05:57 -33.93664 151.18124 29 ft 0 kts 50°
2026-05-04 06:03 -33.93654 151.18103 29 ft 7 kts 222°
2026-05-04 06:03 -33.93691 151.18079 29 ft 5 kts 211°
2026-05-04 06:05 -33.93831 151.17824 21 ft 0 kts 254°
2026-05-04 06:05 -33.93952 151.17796 21 ft 18 kts 168°
2026-05-04 06:05 -33.94042 151.17784 23 ft 11 kts 259°
2026-05-04 06:06 -33.94060 151.17702 21 ft 11 kts 250°
2026-05-04 06:06 -33.94077 151.17623 20 ft 4 kts 253°
2026-05-04 06:06 -33.94084 151.17595 19 ft 6 kts 254°
2026-05-04 06:06 -33.94114 151.17467 19 ft 21 kts 254°
2026-05-04 06:07 -33.94136 151.17376 20 ft 6 kts 252°
2026-05-04 06:07 -33.94173 151.17298 23 ft 13 kts 208°
2026-05-04 06:07 -33.94259 151.17300 22 ft 13 kts 160°
2026-05-04 06:07 -33.94345 151.17320 24 ft 12 kts 166°
2026-05-04 06:08 -33.94429 151.17341 25 ft 13 kts 166°
2026-05-04 06:08 -33.94517 151.17366 25 ft 14 kts 164°
2026-05-04 06:08 -33.94603 151.17388 28 ft 11 kts 168°
2026-05-04 06:08 -33.94669 151.17406 25 ft 9 kts 166°
2026-05-04 06:09 -33.94762 151.17430 23 ft 19 kts 167°
2026-05-04 06:09 -33.94875 151.17458 19 ft 16 kts 168°
2026-05-04 06:11 -33.95280 151.17563 16 ft 7 kts 171°
2026-05-04 06:11 -33.95317 151.17569 17 ft 4 kts 174°
2026-05-04 06:13 -33.96010 151.17753 24 ft 13 kts 167°
2026-05-04 06:14 -33.96389 151.17850 22 ft 3 kts 167°
2026-05-04 06:14 -33.96395 151.17851 22 ft 0 kts 167°
2026-05-04 06:15 -33.96422 151.17867 22 ft 2 kts 136°
2026-05-04 06:16 -33.96440 151.17896 22 ft 6 kts 109°
2026-05-04 06:16 -33.96442 151.17914 22 ft 0 kts 94°
2026-05-04 06:17 -33.96443 151.17924 22 ft 0 kts 88°
2026-05-04 06:18 -33.96443 151.17926 22 ft 0 kts 88°
2026-05-04 06:20 -33.96399 151.18058 23 ft 0 kts 353°
2026-05-04 06:20 -33.96296 151.18031 22 ft 41 kts 348°
2026-05-04 06:21 -33.94334 151.17487 847 ft 86 kts 353°
2026-05-04 06:21 -33.93722 151.17389 1071 ft 91 kts 353°
2026-05-04 06:22 -33.93091 151.17286 1289 ft 92 kts 353°
2026-05-04 06:22 -33.92452 151.17209 1505 ft 94 kts 355°
2026-05-04 06:25 -33.95597 151.14800 4268 ft 162 kts 183°
2026-05-04 06:25 -33.96734 151.14909 4547 ft 162 kts 182°
2026-05-04 06:26 -33.97826 151.14820 4814 ft 154 kts 202°
2026-05-04 06:26 -33.98870 151.14526 5085 ft 154 kts 203°
2026-05-04 06:26 -33.99930 151.14263 5351 ft 157 kts 200°
2026-05-04 06:26 -34.01014 151.14050 5619 ft 158 kts 198°
2026-05-04 06:27 -34.05669 151.13210 6013 ft 185 kts 195°
2026-05-04 06:28 -34.06951 151.12987 6010 ft 187 kts 197°
2026-05-04 06:28 -34.08245 151.12755 6007 ft 189 kts 197°
2026-05-04 06:28 -34.09548 151.12519 6006 ft 190 kts 196°
2026-05-04 06:28 -34.10855 151.12287 6006 ft 190 kts 195°
2026-05-04 06:29 -34.12153 151.12059 6002 ft 188 kts 195°
2026-05-04 06:29 -34.13447 151.11823 6001 ft 188 kts 195°
2026-05-04 06:29 -34.14742 151.11591 6000 ft 188 kts 195°
2026-05-04 06:29 -34.16039 151.11358 5998 ft 189 kts 195°
2026-05-04 06:30 -34.16902 151.11203 5997 ft 189 kts 195°
2026-05-04 06:30 -34.18202 151.10969 5994 ft 189 kts 195°
2026-05-04 06:30 -34.19479 151.10656 5987 ft 183 kts 208°
2026-05-04 06:30 -34.20529 151.09872 5980 ft 175 kts 226°
2026-05-04 06:31 -34.21510 151.09005 5982 ft 174 kts 224°
2026-05-04 06:31 -34.22503 151.08152 5982 ft 176 kts 224°
2026-05-04 06:31 -34.23500 151.07292 5980 ft 176 kts 224°
2026-05-04 06:31 -34.24497 151.06427 5981 ft 176 kts 224°
2026-05-04 06:32 -34.25492 151.05561 5980 ft 176 kts 224°
2026-05-04 06:33 -34.33534 151.02004 5977 ft 182 kts 200°
2026-05-04 06:34 -34.34775 151.01692 5974 ft 182 kts 200°
2026-05-04 06:34 -34.36017 151.01382 5971 ft 182 kts 200°
2026-05-04 06:34 -34.37258 151.01072 5971 ft 182 kts 200°
2026-05-04 06:34 -34.38503 151.00761 5971 ft 182 kts 200°
2026-05-04 06:35 -34.39745 151.00450 5971 ft 183 kts 200°
2026-05-04 06:36 -34.48425 150.98281 5972 ft 182 kts 200°
2026-05-04 06:37 -34.49680 150.97964 5967 ft 182 kts 200°
2026-05-04 06:37 -34.50921 150.97652 5890 ft 182 kts 200°
2026-05-04 06:37 -34.52153 150.97344 5798 ft 179 kts 200°
2026-05-04 06:37 -34.53369 150.97040 5693 ft 178 kts 200°
2026-05-04 06:38 -34.54579 150.96736 5597 ft 178 kts 200°
2026-05-04 06:38 -34.55774 150.96436 5501 ft 177 kts 200°
2026-05-04 06:40 -34.63944 150.94383 4794 ft 169 kts 201°
2026-05-04 06:40 -34.65092 150.94095 4692 ft 168 kts 201°
2026-05-04 06:40 -34.66242 150.93805 4591 ft 170 kts 200°
2026-05-04 06:40 -34.67405 150.93512 4493 ft 171 kts 200°
2026-05-04 06:41 -34.68573 150.93219 4398 ft 172 kts 199°
2026-05-04 06:41 -34.69744 150.92925 4291 ft 172 kts 199°
2026-05-04 06:41 -34.70907 150.92631 4264 ft 169 kts 199°
2026-05-04 06:41 -34.72048 150.92344 4260 ft 166 kts 199°
2026-05-04 06:42 -34.73168 150.92062 4260 ft 164 kts 200°
2026-05-04 06:42 -34.74285 150.91774 4255 ft 163 kts 202°
2026-05-04 06:42 -34.75237 150.91154 4251 ft 151 kts 231°
2026-05-04 06:44 -34.76512 150.83580 4259 ft 123 kts 271°
2026-05-04 06:44 -34.76593 150.82597 4264 ft 111 kts 275°
2026-05-04 06:44 -34.76390 150.81752 4256 ft 103 kts 306°
2026-05-04 06:45 -34.75819 150.81204 4141 ft 111 kts 334°
2026-05-04 06:45 -34.75013 150.81174 3988 ft 124 kts
2026-05-04 06:45 -34.74227 150.81718 3823 ft 133 kts 23°
2026-05-04 06:45 -34.73400 150.81841 3649 ft 119 kts 333°
2026-05-04 06:46 -34.72755 150.81231 3496 ft 118 kts 322°
2026-05-04 06:46 -34.72007 150.80822 3340 ft 121 kts 343°
2026-05-04 06:46 -34.71156 150.80654 3166 ft 126 kts 345°
2026-05-04 06:46 -34.70284 150.80527 2980 ft 118 kts 348°
2026-05-04 06:48 -34.65439 150.79911 1932 ft 83 kts 353°
2026-05-04 06:48 -34.64880 150.79849 1804 ft 80 kts 351°
2026-05-04 06:49 -34.64329 150.79785 1685 ft 78 kts 352°
2026-05-04 06:50 -34.60578 150.79618 929 ft 81 kts 358°
2026-05-04 06:51 -34.59998 150.79580 851 ft 89 kts 357°
2026-05-04 06:51 -34.59392 150.79489 773 ft 90 kts 354°
2026-05-04 06:51 -34.58830 150.79379 658 ft 77 kts 351°
2026-05-04 06:51 -34.58342 150.79256 483 ft 67 kts 352°
2026-05-04 06:52 -34.57864 150.79157 358 ft 77 kts 354°
2026-05-04 06:52 -34.57323 150.79032 227 ft 82 kts 351°
2026-05-04 06:52 -34.56776 150.78907 82 ft 73 kts 354°
2026-05-04 06:52 -34.56361 150.78813 35 ft 52 kts 350°
2026-05-04 06:53 -34.56090 150.78750 35 ft 21 kts 348°
2026-05-04 06:53 -34.56017 150.78738 33 ft 11 kts 356°
2026-05-04 06:53 -34.55916 150.78711 32 ft 18 kts 347°
2026-05-04 06:53 -34.55861 150.78761 33 ft 9 kts 79°
2026-05-04 06:54 -34.55853 150.78820 34 ft 3 kts 83°
2026-05-04 06:54 -34.55839 150.78893 34 ft 10 kts 69°
2026-05-04 06:54 -34.55828 150.78922 33 ft 0 kts 75°
2026-05-04 06:55 -34.55828 150.78921 33 ft 0 kts 75°